Regional Weather Roundup
Issued by NWS

Home | Current Version | Previous Version | Graphics & Text | Print | Product List | Glossary On
Versions: 1 2 3 4 5 6 7 8 9 10 11 12 13 14 15 16 17 18 19 20 21 22 23 24 25 26 27 28 29 30 31 32 33 34 35 36 37 38 39 40 41 42 43 44 45 46 47 48 49 50
000
ASUS43 KLSX 191757
RWRMO

WEATHER SUMMARY FOR MISSOURI
NATIONAL WEATHER SERVICE SPRINGFIELD MO
1200 PM CST SUN FEB 19 2017

NOTE: "FAIR" INDICATES FEW OR NO CLOUDS BELOW 12,000 FEET WITH NO
       SIGNIFICANT WEATHER AND/OR OBSTRUCTIONS TO VISIBILITY.
       CURRENT SKY AND/OR WEATHER CONDITIONS ARE NOT AVAILABLE FOR
       CHILLICOTHE AND FARMINGTON.

MOZ001>031-035>038-043-044-053-054-191900-
...NORTHERN AND WESTERN MISSOURI...

CITY           SKY/WX    TMP DP  RH WIND       PRES   REMARKS
KANSAS CTY INT PTSUNNY   66  52  60 SE9       29.96F
6HR MIN TEMP:  45; 6HR MAX TEMP:  66;

LEE`S SUMMIT   SUNNY     66  53  63 S9        29.97F
6HR MIN TEMP:  47; 6HR MAX TEMP:  67;

ST JOSEPH      SUNNY     66  53  63 S15       29.95F
6HR MIN TEMP:  34; 6HR MAX TEMP:  66;

CHILLICOTHE      N/A     66  52  60 S8        29.99F
6HR MIN TEMP:  36; 6HR MAX TEMP:  66;


$$
MOZ066>068-077>081-088>096-101>105-191900-
...SOUTHWEST MISSOURI...

CITY           SKY/WX    TMP DP  RH WIND       PRES   REMARKS
SPRINGFIELD    SUNNY     69  54  58 S12       30.01F
6HR MIN TEMP:  42; 6HR MAX TEMP:  69;

JOPLIN         SUNNY     71  57  61 S8        29.98F
6HR MIN TEMP:  44; 6HR MAX TEMP:  72;

BRANSON        MOSUNNY   68  57  68 SE6       30.04F

$$
MOZ032>034-039>042-045>050-055>058-069>072-191900-
...CENTRAL MISSOURI...

CITY           SKY/WX    TMP DP  RH WIND       PRES   REMARKS
COLUMBIA       NOT AVBL
JEFFERSON CITY SUNNY     65  50  58 E7        30.02F
6HR MIN TEMP:  32; 6HR MAX TEMP:  65;

ROLLA          SUNNY     70  50  49 SE14      30.02F
6HR MIN TEMP:  42; 6HR MAX TEMP:  70;

SEDALIA        SUNNY     73  50  44 SE12      30.00F
6HR MIN TEMP:  42; 6HR MAX TEMP:  74;

WARRENSBURG    SUNNY     68  50  52 S12       29.99F

$$
MOZ051-052-059>065-191900-
...EAST CENTRAL MISSOURI...

CITY           SKY/WX    TMP DP  RH WIND       PRES   REMARKS
ST LOUIS INTL  MOSUNNY   68  51  54 CALM      30.07F
6HR MIN TEMP:  42; 6HR MAX TEMP:  68;


$$
MOZ072>076-082>087-097>100-106>115-191900-
...SOUTH CENTRAL AND SOUTHEAST MISSOURI...

CITY           SKY/WX    TMP DP  RH WIND       PRES   REMARKS
CAPE GIRARDEAU CLOUDY    55  52  89 S3        30.11S
6HR MIN TEMP:  49; 6HR MAX TEMP:  55;

POPLAR BLUFF   CLOUDY    55  55 100 S3        30.10F FOG
6HR MIN TEMP:  47; 6HR MAX TEMP:  55;


$$



USA.gov is the U.S. government's official web portal to all federal, state and local government web resources and services.